Location: Laguna de la Cañada del Gallo
(40.3974°N, 5.2096°W)
Time: 02:37:46
(UTC+00:00)

BlueWalker 3 - Pass Details

Date: 18 April 2024
Orbit: 481 x 494 km, 53.2° (Epoch: 25 May)

Event Time Altitude Azimuth Distance (km) Brightness Sun altitude
Rises 20:34:03 0° 240° (WSW) 2,558 5.9 -16.6°
Reaches altitude 10° 20:36:14 10° 245° (WSW) 1,682 5.0 -17.0°
Maximum altitude 20:39:59 56° 324° (NW) 593 2.6 -17.6°
Drops below altitude 10° 20:43:46 10° 44° (NE) 1,697 4.5 -18.2°
Enters shadow 20:45:06 - 47° (NE) 2,228 5.1 -18.4°
